CAPE
0 0 0 0 0 0 0 0 0 0 0 0 0 0 0 0 0 0 0 0 0 0 0 0 0 0 0 0 0 0 0 0 0 13 0 0 0 72 179 28 26 21 531 305 20
0 0 0 0 0 0 0 0 0 0 0 0 0 0 0 0 0 0 0 0 0 0 0 0 0 0 0 0 0 0 0 0 0 0 4 0 0 9 241 148 62 133 644 457 113
0 0 0 0 0 0 0 0 0 0 0 0 0 0 0 0 0 0 0 0 0 0 0 0 0 0 0 0 0 0 0 0 0 0 0 0 0 58 2 91 164 102 745 600 140
0 0 0 0 0 0 0 0 0 0 0 0 0 0 0 0 0 0 0 0 0 0 0 0 0 0 0 0 0 0 0 0 0 0 0 0 0 3 0 6 11 0 413 624 309
0 0 0 0 0 0 0 0 0 0 0 0 0 0 0 0 0 0 0 0 0 0 0 0 0 0 0 0 0 0 0 0 0 0 0 0 0 0 31 14 9 0 84 736 366
0 0 0 0 0 0 0 0 0 0 0 0 0 0 0 0 0 0 0 0 0 0 0 0 0 0 0 0 0 0 0 0 0 0 0 0 0 0 0 19 89 316 496 979 356
0 0 0 0 0 0 0 0 0 0 0 0 0 0 0 0 0 0 0 0 0 0 0 0 0 0 0 0 0 0 0 0 0 0 0 0 0 0 0 0 5 9 192 491 354
0 0 0 0 0 0 0 0 0 0 0 0 0 0 0 0 0 0 0 0 0 0 0 0 0 0 0 0 0 0 0 0 0 0 0 0 0 0 0 0 0 0 15 180 279
0 0 0 0 0 0 0 0 0 0 0 0 0 0 0 0 0 0 0 0 0 0 0 0 0 0 0 0 0 0 0 0 0 0 0 0 0 0 0 0 0 0 10 43 180
0 0 0 0 0 0 0 0 0 0 0 0 0 0 0 0 0 0 0 0 0 0 0 0 0 0 0 0 0 0 0 0 0 0 0 0 0 0 0 0 0 0 0 11 69
0 0 0 0 0 0 0 0 0 0 0 0 0 0 0 0 0 0 0 0 0 0 0 0 0 0 0 0 0 0 0 0 0 0 0 0 0 0 0 0 0 0 0 0 0
0 0 0 0 0 0 0 0 0 0 0 0 0 0 0 0 0 0 0 0 0 0 0 0 0 0 0 0 0 0 0 0 0 0 0 0 0 0 0 0 0 0 3 0 0
0 0 0 0 0 0 0 0 0 0 0 0 0 0 0 0 0 0 0 0 0 0 0 0 0 0 0 0 0 0 0 0 0 0 0 0 0 0 0 0 0 0 0 0 1
0 0 0 0 0 0 0 0 0 0 0 0 0 0 0 0 0 0 0 0 0 0 0 0 0 0 0 0 0 0 0 0 0 0 0 0 0 0 0 0 0 0 0 0 0
0 0 0 0 0 0 0 0 0 0 14 0 0 0 0 0 0 0 0 0 0 0 0 0 0 0 0 0 0 0 0 0 0 0 0 0 0 0 0 0 2 153 93 70 51
0 0 0 0 0 0 0 0 0 0 2 0 0 0 0 0 0 0 0 0 0 0 0 0 0 0 0 0 0 0 0 0 0 0 0 0 0 0 16 148 89 0 0 0 2
0 0 0 0 0 0 0 0 0 0 0 0 0 0 0 0 0 0 0 0 0 0 0 0 0 0 0 0 0 0 0 0 1 7 0 0 0 38 0 0 0 0 0 0 0
0 0 0 0 0 0 0 0 0 25 1 0 0 0 0 0 0 0 0 0 0 0 0 1 1 0 0 0 0 0 0 0 0 0 0 0 2 11 0 0 0 0 0 0 0
0 0 0 0 0 0 0 0 0 0 0 0 0 0 0 0 0 0 0 0 0 0 0 0 0 0 0 0 0 0 0 0 0 0 0 0 0 0 0 0 0 0 0 0 0
0 0 0 0 0 0 0 0 0 0 0 0 0 0 4 0 0 0 0 0 0 0 0 0 0 0 0 0 0 0 0 0 0 0 0 0 0 18 0 0 0 0 0 0 0
0 0 0 0 0 0 0 0 0 0 0 0 0 0 0 0 0 7 0 0 0 0 0 0 0 0 0 0 0 0 0 0 0 0 0 0 0 0 0 0 0 0 0 0 0
0 0 0 0 0 0 0 0 0 0 0 0 0 0 0 0 0 0 0 0 0 0 0 0 0 0 0 0 0 0 0 0 0 0 0 0 0 0 0 0 0 0 0 0 0
0 0 0 0 0 0 0 0 0 0 0 0 0 0 0 0 0 0 0 0 0 0 0 0 0 0 0 0 0 0 0 0 0 0 0 0 0 0 0 0 0 0 0 0 0
0 0 0 0 0 0 0 0 0 0 0 0 0 0 0 0 0 0 0 0 0 0 0 0 0 0 0 0 0 0 0 0 0 0 0 0 0 0 0 0 0 0 0 0 0
0 0 0 0 0 0 0 0 0 0 0 0 0 0 0 0 0 0 0 0 0 0 0 0 0 0 0 0 0 0 0 0 0 0 0 0 0 0 0 0 0 0 0 0 0
0 0 0 0 0 0 0 0 0 0 0 0 0 0 0 0 0 0 0 0 0 0 0 0 0 0 0 0 0 4 0 0 0 0 0 0 0 0 0 0 0 0 0 1 0
0 0 0 0 0 0 0 0 0 0 0 0 0 0 0 0 0 0 0 0 0 0 0 0 0 0 2 0 1 8 0 0 0 0 0 0 1 0 0 0 1 1 3 3 1
CIN
0 0 0 0 0 0 0 0 0 0 0 0 0 0 0 0 0 0 0 0 0 0 0 0 0 0 0 0 0 0 0 0 0 -5 0 0 0 -3 -90 -221 -91 -41 -29 -67 -144
0 0 0 0 0 0 0 0 0 0 0 0 0 0 0 0 0 0 0 0 0 0 0 0 0 0 0 0 0 0 0 0 0 0 -24 0 0 -5 -40 -21 -10 -56 -44 -88 -151
0 0 0 0 0 0 0 0 0 0 0 0 0 0 0 0 0 0 0 0 0 0 0 0 0 0 0 0 0 0 0 0 0 -1 0 0 0 -77 -18 -77 -10 -21 -66 -80 -105
0 0 0 0 0 0 0 0 0 0 0 0 0 0 0 0 0 0 0 0 0 0 0 0 0 0 0 0 0 0 0 0 0 0 0 0 0 -11 0 -108 -57 -5 -51 -71 -88
0 0 0 0 0 0 0 0 0 0 0 0 0 0 0 0 0 0 0 0 0 0 0 0 0 0 0 0 0 0 0 0 0 0 0 0 0 0 -73 -163 -201 0 -205 -57 -85
0 0 0 0 0 0 0 0 0 0 0 0 0 0 0 0 0 0 0 0 0 0 0 0 0 0 0 0 0 0 0 0 0 0 0 0 0 0 0 -36 -55 -106 -81 -42 -63
0 0 0 0 0 0 0 0 0 0 0 0 0 0 0 0 0 0 0 0 0 0 0 0 0 0 0 0 0 0 0 0 0 0 0 0 0 0 -1 0 -5 -7 -4 -14 -31
0 0 0 0 0 0 0 0 0 0 0 0 0 0 0 0 0 0 0 0 0 0 0 0 0 0 0 0 0 0 0 0 0 0 0 0 0 0 0 0 -1 -1 -5 -5 -14
0 0 0 0 0 0 0 0 0 0 0 0 0 0 0 0 0 0 0 0 0 0 0 0 0 0 0 0 0 0 0 0 0 0 0 0 0 0 0 0 0 0 -4 -6 -13
0 0 0 0 0 0 0 0 0 0 0 0 0 0 0 0 0 0 0 0 0 0 0 0 0 0 0 0 0 0 0 0 0 0 0 0 0 0 0 0 0 0 0 -11 -5
0 0 0 0 0 0 0 0 0 0 0 0 0 0 0 0 0 0 0 0 0 0 0 0 0 0 0 0 0 0 0 0 0 0 0 0 0 0 0 0 0 0 0 0 0
0 0 0 0 0 0 0 0 0 0 0 0 0 0 0 0 0 0 0 0 0 0 0 0 0 0 0 0 0 0 0 0 0 0 0 0 0 0 0 0 0 0 -8 0 0
0 0 0 0 0 0 0 0 0 0 0 0 0 0 0 0 0 0 0 0 0 0 0 0 0 0 0 0 0 0 0 0 0 0 0 0 0 0 0 0 0 0 0 0 -2
0 0 0 0 0 0 0 0 0 0 0 0 0 0 0 0 0 0 0 0 0 0 0 0 0 0 0 0 0 0 0 0 0 0 0 0 0 0 0 0 0 0 0 0 0
0 0 0 0 0 0 0 0 0 0 -7 0 0 0 0 0 0 0 0 0 0 0 0 0 0 0 0 0 0 0 0 0 0 0 0 0 0 0 0 0 -1 -92 -172 -207 -170
0 0 0 0 0 0 0 0 0 0 -2 0 0 0 0 0 0 0 0 0 0 0 0 0 0 0 0 0 0 0 0 0 0 0 0 0 0 0 -9 -52 -221 0 0 0 -245
0 0 0 0 0 0 0 0 0 0 0 0 0 0 0 0 0 0 0 0 0 0 0 0 0 0 0 0 0 0 0 0 -3 -4 0 0 -17 -82 0 0 0 0 0 0 0
0 0 0 0 0 0 0 0 0 -3 -2 0 0 0 0 0 0 0 0 0 0 0 0 -1 -12 0 0 0 0 0 0 0 0 0 0 0 -17 -142 0 0 0 0 0 0 0
0 0 0 0 0 0 0 0 0 0 0 0 0 0 0 0 0 0 0 0 0 0 0 0 0 0 0 0 0 0 0 0 0 0 0 0 0 0 0 0 0 0 0 0 0
0 0 0 0 0 0 0 0 0 0 0 0 0 0 -4 0 0 0 0 0 0 0 0 0 0 0 0 0 0 0 0 0 0 0 0 0 -4 -85 0 0 0 0 0 0 0
0 0 0 0 0 0 0 0 0 0 0 0 0 0 0 0 0 -3 0 0 0 0 0 0 0 0 0 0 0 0 0 0 0 0 0 0 0 -1 0 0 0 0 0 0 0
0 0 0 0 0 0 0 0 0 0 0 0 0 0 0 0 0 0 0 0 0 0 0 0 0 0 0 0 0 0 0 0 0 0 0 0 0 0 0 0 0 0 0 0 0
0 0 0 0 0 0 0 0 0 0 0 0 0 0 0 0 0 0 0 0 0 0 0 0 0 0 0 0 0 0 0 0 0 0 0 0 0 0 0 0 0 0 0 0 0
0 0 0 0 0 0 0 0 0 0 0 0 0 0 0 0 0 0 0 0 0 0 0 0 0 0 0 0 0 0 0 0 0 0 0 0 0 0 0 0 0 0 0 0 0
0 0 0 0 0 0 0 0 0 0 0 0 0 0 0 0 0 0 0 0 0 0 0 0 0 0 0 0 0 0 0 0 0 0 0 0 0 0 0 0 0 0 0 0 0
0 0 0 0 0 0 0 0 0 0 0 0 0 0 0 0 0 0 0 0 0 0 0 0 0 0 0 0 0 -11 0 0 0 0 0 0 0 0 0 0 0 0 0 0 0
0 0 0 0 0 0 0 0 0 0 0 0 0 0 0 0 0 0 0 0 0 0 0 0 0 0 -3 0 -3 -38 0 0 -2 0 0 0 -2 0 0 0 0 0 0 0 0
Wind_Speed
23 23 23 23 24 24 24 24 24 25 25 25 25 25 26 26 27 23 27 15 13 21 25 26 27 29 31 31 30 30 30 31 30 26 14 14 18 13 9 14 20 15 13 15 18
23 23 23 23 23 24 24 24 24 24 23 24 24 24 24 25 27 28 26 12 14 20 25 23 20 18 21 27 31 29 26 31 29 26 22 19 21 21 11 4 10 11 15 18 19
24 24 23 23 23 23 23 24 24 23 22 22 23 23 23 23 24 18 10 9 13 14 27 26 25 23 19 23 26 29 30 31 33 29 26 24 23 17 12 27 10 7 9 12 16
24 24 24 24 23 23 22 22 22 21 21 21 21 21 21 18 16 14 10 10 12 12 22 21 20 21 21 21 25 28 33 35 35 22 26 31 31 13 19 10 13 17 14 12 11
25 25 24 24 23 22 21 20 19 19 19 19 20 19 18 16 25 11 10 13 10 8 8 10 8 9 12 18 23 26 30 36 36 34 22 27 28 28 6 5 13 13 29 10 9
25 25 24 24 23 21 19 18 17 16 17 18 18 17 17 21 15 10 10 12 10 6 5 14 6 6 28 30 29 28 27 31 34 33 27 28 31 30 29 14 10 11 20 5 7
25 25 24 23 22 20 18 16 15 15 16 16 16 16 21 23 17 15 10 9 11 11 17 20 26 24 20 25 29 32 33 33 24 34 33 34 30 32 26 28 15 10 6 4 4
25 24 23 23 21 19 15 13 13 13 14 15 14 15 18 16 19 15 9 14 14 17 21 23 20 23 27 27 28 25 30 32 32 28 35 29 26 24 31 31 15 16 13 1 3
24 23 22 21 20 15 13 12 13 13 12 11 13 13 21 12 12 9 8 12 12 17 18 21 21 20 20 18 24 13 20 11 19 18 8 10 22 34 33 25 11 7 4 3 4
24 23 21 19 16 11 10 12 12 12 11 10 22 18 19 16 9 7 6 15 12 14 14 15 14 13 15 21 19 17 13 14 20 25 7 10 14 10 11 34 26 7 11 16 3
23 22 20 17 13 9 9 12 13 14 8 9 14 15 12 14 13 8 5 7 7 11 9 7 7 7 12 12 22 33 27 27 24 20 21 22 24 27 29 34 37 18 7 13 30
22 21 18 15 11 9 14 13 17 19 21 2 16 8 16 10 12 7 4 8 9 13 8 9 8 19 19 19 22 25 27 27 28 26 26 26 25 27 31 37 39 40 27 9 9
22 20 17 12 10 10 6 23 19 21 17 7 10 8 5 10 12 7 5 9 14 14 17 12 24 13 18 20 23 24 25 27 29 28 23 23 28 25 24 25 21 33 39 38 25
22 20 12 9 12 8 6 7 21 17 18 6 9 11 8 6 11 14 10 18 17 19 20 21 19 14 17 21 23 25 22 26 24 25 26 23 35 26 21 11 10 13 15 23 23
22 19 6 13 19 15 14 20 20 12 20 5 9 12 6 8 11 11 14 15 19 22 17 20 15 20 17 21 22 19 26 26 25 29 31 28 30 27 23 21 15 19 19 16 18
20 11 5 9 15 13 18 20 14 13 18 11 12 9 6 10 15 14 10 15 23 23 22 26 19 18 20 25 24 26 28 28 28 28 29 23 22 27 22 18 14 17 20 20 22
16 6 4 17 15 19 20 17 13 16 11 12 11 11 8 11 15 13 11 13 17 19 16 15 17 12 18 24 23 25 20 27 26 22 23 19 20 15 18 17 18 21 23 23 25
13 7 5 14 20 19 16 13 18 16 15 15 14 13 12 12 15 12 11 12 19 22 24 23 10 19 17 19 23 26 25 26 32 30 33 30 19 17 15 18 22 23 25 26 28
14 11 12 12 18 15 14 16 20 19 17 18 17 16 16 16 15 14 15 17 19 20 20 21 14 14 18 22 23 23 23 25 28 30 35 34 30 17 21 23 27 29 31 32 32
16 14 12 16 13 13 15 21 19 18 20 19 20 16 20 14 15 15 15 19 19 20 21 20 24 20 25 23 18 21 25 28 25 32 36 32 29 19 24 29 33 36 38 39 39
16 14 14 16 11 13 16 18 16 18 18 19 21 20 20 17 18 16 17 17 21 22 19 22 19 19 25 22 24 26 23 24 24 25 34 37 22 15 26 33 37 39 41 43 42
15 14 16 15 13 13 19 16 16 17 16 18 18 20 18 17 18 18 18 20 21 22 20 21 22 25 23 19 20 19 22 25 28 29 31 31 32 38 36 38 42 45 47 48 47
14 18 18 14 15 15 13 15 17 18 18 17 17 18 18 16 18 15 18 19 20 21 21 22 21 24 18 18 18 20 25 27 28 29 34 39 39 43 45 47 48 52 52 53 52
18 15 16 15 19 17 10 14 16 17 17 16 15 13 14 15 16 15 15 18 19 17 19 19 21 23 25 23 24 28 29 29 29 33 38 38 47 46 53 56 58 57 55 55 55
17 16 16 19 14 13 14 13 15 17 17 16 16 16 12 17 12 14 16 15 16 16 18 20 21 23 24 23 23 26 27 26 30 34 38 44 47 50 54 57 56 54 56 56 56
17 17 16 15 14 13 15 14 14 16 20 18 14 15 15 12 18 14 12 14 18 18 19 20 22 25 25 17 21 19 23 27 32 36 37 42 44 47 49 49 49 50 52 54 56
18 18 16 13 13 14 16 16 15 15 19 15 13 11 11 15 15 14 16 16 16 18 19 20 23 22 21 20 20 24 28 30 32 33 37 43 45 46 47 48 43 47 49 51 54
Wind_Direction
299 296 291 285 280 274 273 273 271 272 271 274 277 274 276 275 268 292 237 241 321 291 276 250 227 223 222 224 230 232 237 234 239 270 327 351 316 326 47 54 155 358 41 83 91
300 296 291 288 283 276 277 275 275 278 281 279 280 278 281 284 268 236 222 316 318 296 263 209 191 175 187 200 215 215 204 217 240 264 300 308 308 301 315 294 28 27 59 86 98
305 299 293 290 287 282 281 277 279 283 285 285 285 285 287 287 286 304 333 332 316 310 222 222 223 203 182 192 195 205 208 220 238 285 286 289 287 342 325 235 348 72 82 84 94
305 303 298 292 290 288 287 287 288 291 291 289 288 288 291 302 314 335 6 351 333 314 197 186 188 191 193 191 197 205 220 231 243 308 285 273 274 344 343 240 325 294 244 93 90
304 302 300 297 294 295 294 296 299 297 299 296 293 294 298 301 273 352 355 329 349 349 123 140 139 147 169 185 202 203 217 234 242 250 296 268 264 265 147 99 9 6 199 110 95
305 302 301 300 298 299 304 303 304 307 303 299 300 303 300 284 320 354 346 337 345 8 72 161 326 142 256 240 228 217 210 222 234 237 223 277 263 242 244 293 352 114 166 97 110
304 302 299 297 295 297 304 308 308 309 308 306 307 308 288 215 308 316 322 344 327 311 292 277 261 281 293 278 252 240 243 248 207 223 237 247 230 262 260 253 193 324 320 108 111
302 301 297 295 290 297 310 320 320 319 315 312 316 315 297 320 296 310 319 307 304 294 278 278 287 281 270 273 276 283 264 240 235 224 224 272 216 208 232 255 294 302 302 274 136
301 299 298 294 290 306 320 328 325 324 328 334 323 323 299 333 322 320 320 311 313 298 295 289 288 287 292 297 290 309 297 307 275 203 215 215 207 241 256 224 188 315 304 186 185
300 299 296 296 304 340 348 336 341 335 334 342 280 308 294 317 352 340 339 304 318 313 311 310 309 301 294 285 291 299 300 312 307 296 299 209 206 212 276 248 256 269 298 289 275
295 295 296 301 317 356 11 349 334 332 331 318 318 308 339 334 327 326 353 348 354 332 325 353 325 304 304 294 287 279 297 292 301 319 303 299 290 285 283 273 268 290 276 293 283
287 287 288 302 338 354 311 334 324 313 303 110 307 314 313 345 329 345 7 324 321 308 328 317 319 294 292 297 298 294 292 288 294 301 301 297 298 294 289 278 266 267 279 284 286
278 276 286 322 347 351 73 253 303 304 312 345 333 340 329 328 328 340 329 307 301 309 299 304 308 316 308 300 296 294 293 293 294 297 310 307 298 300 298 295 292 282 277 279 293
269 262 318 11 344 62 29 342 298 326 313 333 336 342 347 345 320 319 323 295 297 297 296 293 300 316 311 299 296 293 299 300 301 303 300 305 295 303 316 289 289 295 300 293 294
274 279 11 120 285 314 335 307 298 334 314 13 351 342 25 334 344 321 313 301 294 291 304 306 302 307 304 304 313 307 301 306 303 299 299 302 301 308 312 311 323 327 336 343 337
289 316 15 334 320 265 314 307 327 311 308 330 342 347 352 321 314 323 320 302 290 293 291 285 313 309 310 305 305 303 300 300 299 300 296 308 305 311 323 319 356 349 341 335 335
308 359 51 295 318 317 311 312 312 299 325 325 335 322 320 321 316 315 318 319 313 301 299 298 303 328 317 310 309 309 305 300 299 295 297 328 314 2 14 6 356 345 341 336 334
330 17 351 308 307 315 317 313 298 306 321 326 319 316 307 312 310 312 317 316 316 308 295 294 282 310 325 323 308 306 307 302 295 296 294 305 313 323 354 351 342 339 334 333 332
323 332 323 334 312 321 313 297 298 314 317 309 308 298 298 299 306 311 308 312 317 315 299 299 309 328 326 318 316 308 304 312 302 296 293 292 294 335 342 335 329 326 326 324 324
315 313 328 325 330 321 306 292 306 312 310 308 297 296 292 291 296 294 300 312 308 313 308 304 294 316 315 317 318 316 316 304 301 295 291 295 302 311 326 326 325 321 319 316 316
321 328 331 324 329 313 301 314 317 317 312 306 298 299 294 297 299 293 306 312 309 307 312 308 301 303 318 316 312 314 316 313 307 304 297 293 307 359 336 334 325 321 319 316 314
324 323 330 324 310 308 308 318 318 321 319 310 306 301 299 300 297 300 297 307 313 308 306 313 305 300 311 323 326 326 321 319 304 299 300 297 284 303 339 331 324 318 314 310 314
325 324 332 318 312 306 319 321 322 316 313 309 305 304 304 301 297 304 305 319 320 312 307 312 307 303 302 314 323 318 323 319 312 307 298 293 293 305 320 319 320 317 315 310 311
321 329 335 320 311 317 318 314 318 323 320 318 315 317 310 304 311 302 307 317 326 327 322 319 310 304 305 311 315 311 316 317 312 304 303 300 302 309 312 312 312 314 315 312 310
329 331 330 328 332 325 316 316 313 313 315 316 311 310 313 308 315 307 313 319 327 331 331 321 306 313 312 313 317 317 318 326 320 315 307 308 307 313 315 314 314 317 314 314 312
339 338 339 336 337 336 322 320 316 322 312 311 311 312 313 316 308 310 321 321 320 325 325 326 315 314 312 310 321 326 327 323 322 320 317 316 313 322 321 323 321 324 323 319 316
354 344 341 353 350 336 328 321 319 324 323 327 321 321 329 329 339 337 341 335 330 324 326 324 319 319 317 318 315 314 326 327 325 329 325 317 320 325 326 327 328 328 330 326 323